GLO1883 SBCT-SBGL

Flight info

Callsign GLO1883
Flight time 0h 59m
Altitude 37000
Route EDVEB UM548 KOXAG UM540 ANISE DCT DORLU UZ42 VUREP
Aircraft B738/M-SDFGIKLORWXY/LB1

Departure

Time 2026-04-29 00:51
Airport Curitiba-Afonso Pena International Airport (SBCT)

Arrival

Time 2026-04-29 01:51
Airport Rio Galeão – Tom Jobim International Airport (SBGL)
Time Latitude Longitude Altitude Speed Heading
2026-04-29 00:20 -25.53526 -49.17265 2992 ft 0 kts 208°
2026-04-29 00:38 -25.53524 -49.17264 2992 ft 1 kts 209°
2026-04-29 00:38 -25.53509 -49.17255 2992 ft 3 kts 216°
2026-04-29 00:38 -25.53494 -49.17240 2992 ft 3 kts 230°
2026-04-29 00:39 -25.53483 -49.17222 2990 ft 3 kts 255°
2026-04-29 00:39 -25.53482 -49.17204 2990 ft 3 kts 301°
2026-04-29 00:39 -25.53486 -49.17198 2990 ft 1 kts 316°
2026-04-29 00:44 -25.53471 -49.17214 2989 ft 8 kts 316°
2026-04-29 00:44 -25.53433 -49.17256 2990 ft 8 kts 315°
2026-04-29 00:45 -25.53386 -49.17267 2991 ft 8 kts 27°
2026-04-29 00:45 -25.53349 -49.17243 2992 ft 5 kts 351°
2026-04-29 00:45 -25.53315 -49.17277 2992 ft 10 kts 311°
2026-04-29 00:45 -25.53246 -49.17356 2992 ft 18 kts 315°
2026-04-29 00:46 -25.53161 -49.17450 2991 ft 17 kts 314°
2026-04-29 00:46 -25.53080 -49.17542 2990 ft 16 kts 315°
2026-04-29 00:46 -25.53002 -49.17630 2988 ft 16 kts 312°
2026-04-29 00:46 -25.52980 -49.17743 2986 ft 15 kts 272°
2026-04-29 00:47 -25.52974 -49.17856 2984 ft 13 kts 281°
2026-04-29 00:47 -25.52917 -49.17930 2984 ft 13 kts 317°
2026-04-29 00:47 -25.52848 -49.17992 2983 ft 13 kts 344°
2026-04-29 00:47 -25.52756 -49.17995 2985 ft 13 kts 359°
2026-04-29 00:48 -25.52673 -49.17999 2988 ft 2 kts 356°
2026-04-29 00:48 -25.52663 -49.17999 2988 ft 1 kts 356°
2026-04-29 00:48 -25.52654 -49.18000 2989 ft 1 kts 356°
2026-04-29 00:48 -25.52637 -49.18001 2989 ft 8 kts 358°
2026-04-29 00:49 -25.52554 -49.18004 2991 ft 16 kts 358°
2026-04-29 00:49 -25.52445 -49.18029 2992 ft 16 kts 325°
2026-04-29 00:49 -25.52367 -49.18114 2994 ft 15 kts 315°
2026-04-29 00:49 -25.52293 -49.18196 2995 ft 15 kts 316°
2026-04-29 00:50 -25.52208 -49.18235 2995 ft 11 kts 310°
2026-04-29 00:50 -25.52231 -49.18263 2994 ft 6 kts 146°
2026-04-29 00:50 -25.52251 -49.18244 2995 ft 0 kts 137°
2026-04-29 00:50 -25.52306 -49.18183 2995 ft 42 kts 134°
2026-04-29 00:51 -25.52704 -49.17735 2987 ft 119 kts 135°
2026-04-29 00:51 -25.53445 -49.16915 3016 ft 180 kts 135°
2026-04-29 00:51 -25.54367 -49.15954 3866 ft 184 kts 133°
2026-04-29 00:51 -25.55021 -49.14726 4599 ft 197 kts 96°
2026-04-29 00:52 -25.54918 -49.13130 4881 ft 222 kts 76°
2026-04-29 00:52 -25.54591 -49.11366 5218 ft 244 kts 75°
2026-04-29 00:52 -25.54216 -49.09443 5578 ft 270 kts 75°
2026-04-29 00:52 -25.53806 -49.07355 6242 ft 283 kts 75°
2026-04-29 00:53 -25.53387 -49.05199 7070 ft 290 kts 75°
2026-04-29 00:53 -25.52960 -49.02991 7869 ft 297 kts 75°
2026-04-29 00:53 -25.52524 -49.00727 8677 ft 304 kts 76°
2026-04-29 00:53 -25.52081 -48.98418 9529 ft 310 kts 76°
2026-04-29 00:54 -25.51628 -48.96056 10280 ft 317 kts 76°
2026-04-29 00:54 -25.51157 -48.93605 10692 ft 338 kts 75°
2026-04-29 00:54 -25.50655 -48.90998 11183 ft 352 kts 76°
2026-04-29 00:54 -25.50141 -48.88318 11867 ft 359 kts 75°
2026-04-29 00:55 -25.49618 -48.85593 12621 ft 363 kts 75°
2026-04-29 00:55 -25.49091 -48.82844 13429 ft 367 kts 75°
2026-04-29 00:55 -25.48557 -48.80063 14138 ft 372 kts 75°
2026-04-29 00:55 -25.48015 -48.77247 14830 ft 375 kts 75°
2026-04-29 00:56 -25.47477 -48.74450 15557 ft 378 kts 75°
2026-04-29 00:56 -25.46927 -48.71599 16266 ft 381 kts 74°
2026-04-29 00:56 -25.46370 -48.68719 16954 ft 385 kts 74°
2026-04-29 00:56 -25.45807 -48.65809 17640 ft 388 kts 74°
2026-04-29 00:57 -25.45238 -48.62871 18335 ft 392 kts 73°
2026-04-29 00:57 -25.44664 -48.59912 18899 ft 396 kts 73°
2026-04-29 00:57 -25.44074 -48.56872 19410 ft 401 kts 73°
2026-04-29 00:57 -25.43494 -48.53889 19965 ft 404 kts 73°
2026-04-29 00:58 -25.42898 -48.50829 20424 ft 411 kts 73°
2026-04-29 00:58 -25.42286 -48.47695 20749 ft 421 kts 73°
2026-04-29 00:58 -25.41662 -48.44503 21224 ft 426 kts 73°
2026-04-29 00:58 -25.41037 -48.41295 21775 ft 429 kts 73°
2026-04-29 00:59 -25.40406 -48.38056 22298 ft 432 kts 73°
2026-04-29 00:59 -25.39768 -48.34794 22780 ft 436 kts 73°
2026-04-29 00:59 -25.39122 -48.31495 23271 ft 440 kts 73°
2026-04-29 00:59 -25.38471 -48.28176 23748 ft 443 kts 73°
2026-04-29 01:00 -25.37814 -48.24830 24134 ft 447 kts 73°
2026-04-29 01:00 -25.37153 -48.21466 24534 ft 450 kts 73°
2026-04-29 01:00 -25.36468 -48.18082 24936 ft 451 kts 70°
2026-04-29 01:00 -25.35395 -48.14858 25420 ft 443 kts 58°
2026-04-29 01:01 -25.33873 -48.11934 25894 ft 436 kts 47°
2026-04-29 01:01 -25.32044 -48.09265 26285 ft 436 kts 45°
2026-04-29 01:01 -25.30172 -48.06609 26637 ft 440 kts 45°
2026-04-29 01:01 -25.28277 -48.03931 27009 ft 443 kts 45°
2026-04-29 01:02 -25.26378 -48.01235 27389 ft 446 kts 45°
2026-04-29 01:02 -25.24475 -47.98517 27766 ft 449 kts 45°
2026-04-29 01:02 -25.22563 -47.95772 28120 ft 452 kts 45°
2026-04-29 01:02 -25.20640 -47.93002 28467 ft 455 kts 45°
2026-04-29 01:03 -25.18711 -47.90221 28820 ft 458 kts 45°
2026-04-29 01:03 -25.16797 -47.87458 29158 ft 460 kts 45°
2026-04-29 01:03 -25.14846 -47.84643 29506 ft 463 kts 45°
2026-04-29 01:03 -25.12884 -47.81813 29840 ft 466 kts 45°
2026-04-29 01:04 -25.10912 -47.78970 30145 ft 468 kts 45°
2026-04-29 01:04 -25.08926 -47.76111 30417 ft 471 kts 45°
2026-04-29 01:04 -25.06924 -47.73230 30680 ft 473 kts 45°
2026-04-29 01:04 -25.04915 -47.70340 30933 ft 476 kts 45°
2026-04-29 01:05 -25.02894 -47.67436 31186 ft 478 kts 45°
2026-04-29 01:05 -25.00863 -47.64519 31428 ft 480 kts 46°
2026-04-29 01:05 -24.98822 -47.61588 31674 ft 483 kts 46°
2026-04-29 01:05 -24.96779 -47.58658 31964 ft 484 kts 46°
2026-04-29 01:06 -24.94728 -47.55716 32321 ft 483 kts 46°
2026-04-29 01:06 -24.92680 -47.52778 32693 ft 482 kts 46°
2026-04-29 01:06 -24.90636 -47.49849 33009 ft 482 kts 46°
2026-04-29 01:06 -24.88587 -47.46917 33299 ft 483 kts 46°
2026-04-29 01:07 -24.86534 -47.43983 33615 ft 483 kts 46°
2026-04-29 01:07 -24.84483 -47.41052 33948 ft 483 kts 46°
2026-04-29 01:07 -24.82432 -47.38122 34231 ft 483 kts 46°
2026-04-29 01:07 -24.80379 -47.35191 34498 ft 484 kts 46°
2026-04-29 01:08 -24.78323 -47.32258 34781 ft 483 kts 46°
2026-04-29 01:08 -24.76271 -47.29333 35065 ft 483 kts 45°
2026-04-29 01:08 -24.74219 -47.26409 35333 ft 483 kts 45°
2026-04-29 01:08 -24.72166 -47.23485 35590 ft 483 kts 45°
2026-04-29 01:09 -24.70140 -47.20603 35859 ft 482 kts 45°
2026-04-29 01:09 -24.68088 -47.17683 36127 ft 482 kts 45°
2026-04-29 01:09 -24.66038 -47.14770 36376 ft 482 kts 45°
2026-04-29 01:09 -24.63985 -47.11854 36625 ft 482 kts 45°
2026-04-29 01:10 -24.61930 -47.08937 36885 ft 481 kts 45°
2026-04-29 01:10 -24.59877 -47.06024 37097 ft 482 kts 45°
2026-04-29 01:10 -24.57814 -47.03102 37066 ft 486 kts 45°
2026-04-29 01:11 -24.53666 -46.97228 37064 ft 485 kts 45°
2026-04-29 01:11 -24.49567 -46.91418 37064 ft 478 kts 45°
2026-04-29 01:12 -24.45487 -46.85651 37077 ft 477 kts 45°
2026-04-29 01:12 -24.41415 -46.79907 37076 ft 477 kts 45°
2026-04-29 01:13 -24.37340 -46.74164 37075 ft 476 kts 46°
2026-04-29 01:13 -24.33297 -46.68471 37079 ft 476 kts 46°
2026-04-29 01:14 -24.29221 -46.62737 37076 ft 477 kts 46°
2026-04-29 01:14 -24.25130 -46.56990 37074 ft 478 kts 46°
2026-04-29 01:15 -24.21039 -46.51250 37076 ft 478 kts 46°
2026-04-29 01:15 -24.16937 -46.45500 37077 ft 479 kts 46°
2026-04-29 01:16 -24.12827 -46.39746 37080 ft 480 kts 46°
2026-04-29 01:16 -24.08714 -46.33994 37079 ft 480 kts 46°
2026-04-29 01:17 -24.04587 -46.28229 37080 ft 481 kts 46°
2026-04-29 01:17 -24.00458 -46.22468 37078 ft 481 kts 46°
2026-04-29 01:18 -23.96332 -46.16719 37081 ft 481 kts 46°
2026-04-29 01:18 -23.90140 -46.08101 37078 ft 480 kts 46°
2026-04-29 01:19 -23.86040 -46.02404 37081 ft 479 kts 46°
2026-04-29 01:19 -23.81923 -45.96689 37082 ft 478 kts 46°
2026-04-29 01:20 -23.77809 -45.90985 37086 ft 477 kts 46°
2026-04-29 01:20 -23.73705 -45.85302 37089 ft 476 kts 46°
2026-04-29 01:21 -23.69605 -45.79631 37097 ft 475 kts 46°
2026-04-29 01:21 -23.67573 -45.76821 36905 ft 471 kts 46°
2026-04-29 01:21 -23.65546 -45.74018 36540 ft 465 kts 46°
2026-04-29 01:22 -23.63556 -45.71268 36150 ft 461 kts 46°
2026-04-29 01:22 -23.61602 -45.68572 35754 ft 458 kts 46°
2026-04-29 01:22 -23.59631 -45.65854 35350 ft 455 kts 47°
2026-04-29 01:22 -23.57672 -45.63156 34951 ft 453 kts 47°
2026-04-29 01:23 -23.55721 -45.60470 34554 ft 451 kts 47°
2026-04-29 01:23 -23.53780 -45.57798 34144 ft 449 kts 47°
2026-04-29 01:23 -23.51847 -45.55138 33685 ft 446 kts 47°
2026-04-29 01:23 -23.49933 -45.52505 33276 ft 443 kts 47°
2026-04-29 01:24 -23.48015 -45.49868 32838 ft 441 kts 47°
2026-04-29 01:24 -23.46114 -45.47257 32454 ft 438 kts 47°
2026-04-29 01:24 -23.44232 -45.44670 32068 ft 435 kts 46°
2026-04-29 01:24 -23.42355 -45.42094 31680 ft 432 kts 46°
2026-04-29 01:25 -23.40491 -45.39537 31292 ft 430 kts 46°
2026-04-29 01:25 -23.38639 -45.36998 30910 ft 427 kts 46°
2026-04-29 01:25 -23.36801 -45.34470 30527 ft 426 kts 48°
2026-04-29 01:25 -23.35212 -45.31726 30129 ft 430 kts 58°
2026-04-29 01:26 -23.34053 -45.28777 29869 ft 429 kts 68°
2026-04-29 01:26 -23.33307 -45.25655 29573 ft 425 kts 73°
2026-04-29 01:26 -23.32653 -45.22508 29165 ft 422 kts 73°
2026-04-29 01:26 -23.32012 -45.19379 28772 ft 419 kts 73°
2026-04-29 01:27 -23.31381 -45.16328 28378 ft 417 kts 73°
2026-04-29 01:27 -23.30740 -45.13270 27986 ft 413 kts 73°
2026-04-29 01:27 -23.30093 -45.10234 27611 ft 411 kts 73°
2026-04-29 01:27 -23.29444 -45.07216 27215 ft 409 kts 73°
2026-04-29 01:28 -23.28795 -45.04216 26836 ft 407 kts 72°
2026-04-29 01:28 -23.28146 -45.01228 26441 ft 405 kts 72°
2026-04-29 01:28 -23.27500 -44.98261 26052 ft 402 kts 72°
2026-04-29 01:28 -23.26859 -44.95310 25670 ft 400 kts 72°
2026-04-29 01:29 -23.26222 -44.92374 25285 ft 400 kts 72°
2026-04-29 01:29 -23.25583 -44.89436 24895 ft 399 kts 72°
2026-04-29 01:29 -23.24943 -44.86499 24493 ft 397 kts 72°
2026-04-29 01:29 -23.24309 -44.83583 24115 ft 396 kts 72°
2026-04-29 01:30 -23.23888 -44.81647 23863 ft 395 kts 72°
2026-04-29 01:30 -23.23255 -44.78745 23419 ft 395 kts 72°
2026-04-29 01:30 -23.22622 -44.75848 23021 ft 393 kts 72°
2026-04-29 01:30 -23.21992 -44.72966 22606 ft 390 kts 72°
2026-04-29 01:31 -23.21369 -44.70114 22239 ft 387 kts 72°
2026-04-29 01:31 -23.20611 -44.67354 22011 ft 375 kts 64°
2026-04-29 01:31 -23.19620 -44.64762 21762 ft 368 kts 62°
2026-04-29 01:31 -23.18587 -44.62230 21510 ft 364 kts 61°
2026-04-29 01:32 -23.17559 -44.59738 21230 ft 359 kts 61°
2026-04-29 01:32 -23.16544 -44.57263 20883 ft 358 kts 62°
2026-04-29 01:32 -23.15539 -44.54791 20531 ft 356 kts 62°
2026-04-29 01:32 -23.14546 -44.52329 20171 ft 355 kts 62°
2026-04-29 01:33 -23.13558 -44.49864 19788 ft 355 kts 62°
2026-04-29 01:33 -23.12575 -44.47402 19410 ft 355 kts 62°
2026-04-29 01:33 -23.11593 -44.44941 19039 ft 355 kts 63°
2026-04-29 01:33 -23.10625 -44.42512 18671 ft 354 kts 63°
2026-04-29 01:34 -23.09646 -44.40055 18282 ft 354 kts 63°
2026-04-29 01:34 -23.08668 -44.37602 17885 ft 353 kts 63°
2026-04-29 01:34 -23.07695 -44.35162 17493 ft 351 kts 63°
2026-04-29 01:34 -23.06728 -44.32736 17118 ft 349 kts 63°
2026-04-29 01:35 -23.05763 -44.30318 16750 ft 347 kts 63°
2026-04-29 01:35 -23.04805 -44.27919 16385 ft 345 kts 63°
2026-04-29 01:35 -23.03850 -44.25533 16025 ft 343 kts 64°
2026-04-29 01:35 -23.02909 -44.23180 15785 ft 333 kts 64°
2026-04-29 01:36 -23.02010 -44.20923 15628 ft 319 kts 64°
2026-04-29 01:36 -23.01148 -44.18764 15479 ft 305 kts 64°
2026-04-29 01:36 -23.00323 -44.16698 15351 ft 292 kts 63°
2026-04-29 01:36 -22.99533 -44.14725 15222 ft 278 kts 63°
2026-04-29 01:37 -22.98778 -44.12841 15101 ft 266 kts 63°
2026-04-29 01:37 -22.98045 -44.11015 14926 ft 265 kts 63°
2026-04-29 01:37 -22.97298 -44.09159 14686 ft 271 kts 64°
2026-04-29 01:37 -22.96536 -44.07266 14440 ft 276 kts 64°
2026-04-29 01:38 -22.95770 -44.05356 14149 ft 273 kts 64°
2026-04-29 01:38 -22.95016 -44.03478 13885 ft 268 kts 64°
2026-04-29 01:38 -22.94282 -44.01649 13568 ft 262 kts 64°
2026-04-29 01:38 -22.93572 -43.99881 13288 ft 257 kts 64°
2026-04-29 01:39 -22.92852 -43.98093 13023 ft 259 kts 64°
2026-04-29 01:39 -22.92094 -43.96328 12764 ft 257 kts 62°
2026-04-29 01:39 -22.91316 -43.94590 12501 ft 255 kts 62°
2026-04-29 01:39 -22.90538 -43.92863 12240 ft 254 kts 62°
2026-04-29 01:40 -22.89766 -43.91148 11997 ft 253 kts 62°
2026-04-29 01:40 -22.88996 -43.89430 11734 ft 253 kts 62°
2026-04-29 01:40 -22.88228 -43.87714 11472 ft 253 kts 62°
2026-04-29 01:40 -22.87461 -43.85999 11218 ft 253 kts 62°
2026-04-29 01:41 -22.86692 -43.84279 10960 ft 253 kts 62°
2026-04-29 01:41 -22.85924 -43.82560 10711 ft 254 kts 63°
2026-04-29 01:41 -22.85153 -43.80835 10450 ft 254 kts 63°
2026-04-29 01:41 -22.84383 -43.79111 10192 ft 254 kts 63°
2026-04-29 01:42 -22.83614 -43.77389 9931 ft 254 kts 63°
2026-04-29 01:42 -22.82842 -43.75667 9650 ft 254 kts 63°
2026-04-29 01:42 -22.82083 -43.73970 9379 ft 253 kts 63°
2026-04-29 01:42 -22.81304 -43.72229 9107 ft 253 kts 63°
2026-04-29 01:43 -22.80709 -43.70459 8797 ft 255 kts 74°
2026-04-29 01:43 -22.80295 -43.68584 8514 ft 256 kts 75°
2026-04-29 01:43 -22.79890 -43.66704 8211 ft 257 kts 75°
2026-04-29 01:43 -22.79469 -43.64821 7905 ft 257 kts 75°
2026-04-29 01:44 -22.79038 -43.62935 7610 ft 258 kts 75°
2026-04-29 01:44 -22.78603 -43.61044 7306 ft 260 kts 74°
2026-04-29 01:44 -22.78160 -43.59141 6990 ft 261 kts 74°
2026-04-29 01:44 -22.77711 -43.57219 6667 ft 264 kts 74°
2026-04-29 01:45 -22.77220 -43.55302 6292 ft 266 kts 68°
2026-04-29 01:45 -22.76504 -43.53443 5903 ft 269 kts 64°
2026-04-29 01:45 -22.75737 -43.51585 5495 ft 272 kts 64°
2026-04-29 01:45 -22.74979 -43.49726 5093 ft 268 kts 65°
2026-04-29 01:46 -22.74240 -43.47886 4678 ft 264 kts 65°
2026-04-29 01:46 -22.73513 -43.46067 4210 ft 262 kts 66°
2026-04-29 01:46 -22.72794 -43.44258 3770 ft 260 kts 66°
2026-04-29 01:46 -22.72129 -43.42440 3310 ft 259 kts 77°
2026-04-29 01:47 -22.72166 -43.40561 3085 ft 243 kts 106°
2026-04-29 01:47 -22.72926 -43.39008 2767 ft 231 kts 125°
2026-04-29 01:47 -22.73850 -43.37610 2448 ft 220 kts 125°
2026-04-29 01:47 -22.74701 -43.36319 2157 ft 207 kts 124°
2026-04-29 01:48 -22.75520 -43.35073 1899 ft 193 kts 124°
2026-04-29 01:48 -22.76254 -43.33957 1685 ft 175 kts 124°
2026-04-29 01:48 -22.76935 -43.32919 1416 ft 162 kts 125°
2026-04-29 01:48 -22.77572 -43.31953 1231 ft 152 kts 125°
2026-04-29 01:49 -22.78172 -43.31040 1044 ft 151 kts 125°
2026-04-29 01:49 -22.78794 -43.30093 858 ft 153 kts 125°
2026-04-29 01:49 -22.79412 -43.29151 673 ft 152 kts 124°
2026-04-29 01:49 -22.80006 -43.28239 484 ft 148 kts 124°
2026-04-29 01:50 -22.80601 -43.27340 304 ft 146 kts 124°
2026-04-29 01:50 -22.81186 -43.26451 121 ft 144 kts 126°
2026-04-29 01:50 -22.81745 -43.25607 25 ft 129 kts 126°
2026-04-29 01:50 -22.82193 -43.24935 22 ft 84 kts 126°
2026-04-29 01:51 -22.82330 -43.24706 19 ft 19 kts 108°
2026-04-29 01:51 -22.82350 -43.24617 19 ft 9 kts 102°
2026-04-29 01:51 -22.82363 -43.24542 18 ft 11 kts 98°
2026-04-29 01:51 -22.82365 -43.24468 18 ft 10 kts 83°
2026-04-29 01:52 -22.82319 -43.24411 19 ft 11 kts 33°
2026-04-29 01:52 -22.82259 -43.24365 19 ft 8 kts 37°
2026-04-29 01:52 -22.82217 -43.24331 21 ft 7 kts 36°
2026-04-29 01:52 -22.82169 -43.24298 20 ft 9 kts 18°
2026-04-29 01:53 -22.82112 -43.24325 20 ft 10 kts 308°
2026-04-29 01:53 -22.82067 -43.24393 20 ft 12 kts 305°
2026-04-29 01:53 -22.82018 -43.24468 20 ft 12 kts 305°
2026-04-29 01:53 -22.81967 -43.24545 20 ft 12 kts 306°
2026-04-29 01:54 -22.81921 -43.24603 20 ft 11 kts 330°
2026-04-29 01:54 -22.81851 -43.24583 20 ft 11 kts 33°
2026-04-29 01:54 -22.81780 -43.24555 21 ft 12 kts 346°
2026-04-29 01:54 -22.81722 -43.24626 21 ft 14 kts 303°
2026-04-29 01:55 -22.81680 -43.24692 21 ft 8 kts 304°
2026-04-29 01:55 -22.81645 -43.24747 23 ft 9 kts 304°
2026-04-29 01:55 -22.81609 -43.24803 22 ft 9 kts 304°
2026-04-29 01:55 -22.81574 -43.24857 21 ft 9 kts 317°
2026-04-29 01:56 -22.81548 -43.24852 21 ft 5 kts 40°
2026-04-29 01:56 -22.81527 -43.24824 22 ft 5 kts 53°
2026-04-29 01:56 -22.81517 -43.24810 21 ft 1 kts 54°
2026-04-29 01:56 -22.81512 -43.24803 21 ft 1 kts 54°
2026-04-29 01:57 -22.81509 -43.24798 21 ft 0 kts 54°